Date,TemperatureHighF,TemperatureAvgF,TemperatureLowF,DewpointHighF,DewpointAvgF,DewpointLowF,HumidityHigh,HumidityAvg,HumidityLow,PressureMaxIn,PressureMinIn,WindSpeedMaxMPH,WindSpeedAvgMPH,GustSpeedMaxMPH,PrecipitationSumIn
2013-1-1,23.9,14.8,7.7,14.8,6.3,-0.6,88,69,48,18.44,18.44,15,6,16,0.00
2013-1-2,34.3,20.4,6.3,18.5,9.1,-2.0,78,62,44,18.44,18.44,15,7,15,0.00
2013-1-3,39.0,27.0,13.3,27.7,20.7,7.1,100,78,58,18.44,18.44,12,4,12,0.00
2013-1-4,39.6,25.3,10.9,22.9,16.3,7.0,100,71,46,18.44,18.44,20,7,22,0.00
2013-1-5,41.5,34.0,26.8,35.6,26.8,17.5,100,75,60,18.44,18.44,19,9,19,0.00
2013-1-6,35.8,28.6,23.4,29.6,18.0,9.4,86,65,44,18.44,18.44,20,7,20,0.00
2013-1-7,45.3,33.3,22.6,22.4,19.8,16.6,88,60,40,18.44,18.44,20,8,21,0.00
2013-1-8,50.2,40.5,32.4,25.6,21.9,18.0,62,48,34,18.44,18.44,16,8,16,0.00
2013-1-9,54.3,41.2,33.1,34.5,27.8,20.2,100,61,36,18.44,18.44,11,4,12,0.00
2013-1-10,46.6,41.0,35.6,46.6,33.2,19.0,100,77,40,18.44,18.44,15,5,15,0.39
2013-1-11,59.7,53.1,46.4,51.8,44.0,37.6,100,75,48,18.44,18.44,25,11,25,0.00
2013-1-12,55.9,38.2,23.2,38.2,24.7,14.9,100,61,32,18.44,18.44,23,11,23,0.00
2013-1-13,24.4,19.1,10.4,23.2,9.2,3.8,100,66,48,18.44,18.44,20,8,20,0.00
2013-1-14,32.5,15.8,7.9,11.6,5.1,1.2,76,64,40,18.44,18.44,10,2,10,0.00
2013-1-15,36.1,18.9,6.8,17.1,8.2,-0.9,100,65,38,18.44,18.44,8,1,8,0.00
2013-1-16,42.3,28.0,12.7,22.2,15.3,9.3,100,62,36,18.44,18.44,24,8,24,0.00
2013-1-17,37.9,30.0,25.0,29.0,17.6,9.8,92,61,38,0.00,0.00,19,7,21,0.00
2013-1-18,53.4,38.8,25.2,27.2,20.5,16.6,74,50,32,30.05,0.00,26,12,26,0.00
2013-1-19,58.1,45.3,36.5,31.3,24.2,16.6,60,44,30,30.14,29.87,26,11,28,0.00
2013-1-20,36.5,21.9,15.3,21.5,6.0,1.0,74,51,40,30.37,30.14,26,10,27,0.00
2013-1-21,17.1,12.9,9.1,9.9,0.4,-6.2,76,57,46,30.40,30.29,25,10,25,0.00
2013-1-22,19.2,11.9,5.9,1.8,-4.2,-9.6,48,48,46,30.46,30.32,17,4,17,0.00
2013-1-23,41.5,23.2,9.9,16.6,5.2,-5.9,80,46,36,30.40,30.11,28,8,30,0.00
2013-1-24,27.3,18.5,9.1,7.3,0.9,-6.6,48,46,42,30.61,30.23,26,7,26,0.00
2013-1-25,45.1,31.4,23.7,19.1,10.9,5.0,66,42,34,30.26,30.05,20,6,20,0.00
2013-1-26,42.4,26.3,12.6,17.4,8.4,-0.0,64,47,36,30.40,30.26,15,5,15,0.00
2013-1-27,50.7,40.1,31.1,50.7,39.5,20.4,100,98,64,30.20,29.81,23,9,25,0.04
2013-1-28,68.5,58.8,50.5,60.4,54.2,50.5,100,86,54,29.93,29.72,19,6,19,0.00
2013-1-29,63.3,54.9,37.2,61.9,53.5,37.2,100,95,56,29.75,29.46,34,8,34,1.42
2013-1-30,37.2,30.2,22.8,37.2,24.5,9.5,100,80,52,29.87,29.34,32,12,32,0.24
2013-1-31,24.8,16.8,6.1,14.9,2.8,-9.4,68,53,44,30.37,29.87,27,12,29,0.24